全球多媒体卫星系统α阶段A星 (KL-ALPHA B)

导读

KL-ALPHA B(KL-α-B)是一颗面向德国用户的技术试验卫星,属于KL-α双星项目中的一员,是中国首个出口西方发达国家的商业卫星项目。2019年11月17日,它由中国在酒泉卫星发射中心搭载快舟一号甲火箭成功发射,主要承担Ka频段通信技术试验任务,展现了中国商业航天全链条服务的国际竞争力。

Basic Information
目录编号:
44786
目录名称:
KL-ALPHA B
国际标识:
2019-077B
轨道中心:
EARTH
卫星名称:
全球多媒体卫星系统α阶段A星
卫星全名:
全球多媒体卫星系统α阶段A星 (KL-ALPHA B)
卫星状态:
在轨 (已飞行2490 天)
发射日期:
2019-11-17 UTC
国别 :
德国 (DE)
星等 :
--
This satellite is enrolled in the Space Conjunction Data Service (SCDS) and the current flight risk assessment level is: High Risk
Orbit Information
数据来源 国际轨道数据 AOE轨道数据
星历时间 2026-09-11T15:33:23+0800
7小时前
查看轨道信息
2026-09-10T07:00:00+0800
1天前
查看轨道信息
半长轴 7428.37km 7428.372km
偏心率 0.0024148 0.0024232
轨道倾角 88.916° 88.917°
近地点辐角 259.561° 263.717°
升交点赤经 210.626° 210.774°
平近点角 100.282° 318.059°
近地点 1032.294km 1032.234km
远地点 1068.172km 1068.236km
周期 106.194分钟 106.194分钟
每日圈数 13.560088 13.560083
Detailed Information
平衡模式:
三轴稳定
覆盖范围:
全球
使用方式:
暂无
2D Orbit Map
3D Orbit Map
Orbit Altitude Analysis Chart
Orbit Inclination Analysis Chart
Orbit Comprehensive Analysis Chart
View Comprehensive Chart
Conjunction Data List
Event ID Objects TCA Miss Dist (km) Collision Risk Probability Collision Risk Index (CRI) Action
CDM_260912-224804-478606-604026
2026-09-12T
22:48:47+0000
0.417 km
远距离
2.964113E-4 高风险 0.84
CDM_260911-140404-478604-881129
2026-09-11T
14:04:27+0000
1.283 km
极远距离
7.23518E-6 低风险 0.52
CDM_260912-013404-478606-604128
2026-09-12T
01:34:16+0000
2.091 km
极远距离
2.540487E-6 低风险 0.43
CDM_260913-200401-955904-478621
2026-09-13T
20:04:04+0000
2.836 km
极远距离
1.429345E-6 低风险 0.38
Miss Distance Evolution Trend with All Objects
Collision Probability Evolution Trend with All Objects